| time (UTC) | temp C | wind direction | speed KPH | gust KPH | rain 1hr cm | rain 24hr cm | rain mn cm | humidity % | barometer mb |
| 20260831221505 | 34 | 84 | 4.8 | 0.0 | 0.00 | 0.00 | 0.00 | 40 | 1009.1 |
| 20260831220008 | 34 | 149 | 3.2 | 0.0 | 0.00 | 0.00 | 0.00 | 42 | 1009.4 |
| 20260831214503 | 33 | 111 | 4.8 | 0.0 | 0.00 | 0.00 | 0.00 | 43 | 1009.7 |
| 20260831213103 | 34 | 138 | 4.8 | 0.0 | 0.00 | 0.00 | 0.00 | 42 | 1009.7 |
| 20260831211506 | 33 | 56 | 4.8 | 0.0 | 0.00 | 0.00 | 0.00 | 46 | 1009.8 |
| 20260831204504 | 33 | 112 | 4.8 | 0.0 | 0.00 | 0.00 | 0.00 | 44 | 1010.4 |
| 20260831201604 | 32 | 110 | 4.8 | 0.0 | 0.00 | 0.00 | 0.00 | 46 | 1011.0 |
| 20260831194508 | 33 | 86 | 8.0 | 0.0 | 0.00 | 0.00 | 0.00 | 44 | 1011.4 |
| 20260831193107 | 33 | 168 | 8.0 | 0.0 | 0.00 | 0.00 | 0.00 | 45 | 1011.4 |
| 20260831190003 | 32 | 159 | 6.4 | 0.0 | 0.00 | 0.00 | 0.00 | 48 | 1011.5 |
| 20260831184511 | 32 | 164 | 8.0 | 0.0 | 0.00 | 0.00 | 0.00 | 48 | 1011.9 |
| 20260831181503 | 31 | 152 | 9.7 | 0.0 | 0.00 | 0.00 | 0.00 | 50 | 1012.4 |
| 20260831180002 | 32 | 119 | 8.0 | 0.0 | 0.00 | 0.00 | 0.00 | 51 | 1012.3 |
| 20260831174519 | 32 | 123 | 8.0 | 0.0 | 0.00 | 0.00 | 0.00 | 53 | 1012.3 |
| 20260831173004 | 30 | 164 | 8.0 | 0.0 | 0.00 | 0.00 | 0.00 | 55 | 1012.5 |
| 20260831171507 | 31 | 174 | 8.0 | 0.0 | 0.00 | 0.00 | 0.00 | 54 | 1012.5 |
| 20260831170104 | 30 | 183 | 8.0 | 0.0 | 0.00 | 0.00 | 0.00 | 56 | 1012.6 |
| 20260831164506 | 30 | 175 | 9.7 | 0.0 | 0.00 | 0.00 | 0.00 | 58 | 1012.7 |
| 20260831163106 | 30 | 181 | 8.0 | 0.0 | 0.00 | 0.00 | 0.00 | 59 | 1012.8 |
| 20260831161504 | 29 | 154 | 9.7 | 0.0 | 0.00 | 0.00 | 0.00 | 61 | 1012.8 |
| 20260831160008 | 29 | 181 | 8.0 | 0.0 | 0.00 | 0.00 | 0.00 | 61 | 1012.7 |
| 20260831154504 | 28 | 173 | 11.3 | 0.0 | 0.00 | 0.00 | 0.00 | 62 | 1012.6 |
| 20260831153009 | 28 | 178 | 12.9 | 0.0 | 0.00 | 0.00 | 0.00 | 64 | 1012.6 |
| 20260831151507 | 27 | 151 | 11.3 | 0.0 | 0.00 | 0.00 | 0.00 | 66 | 1012.5 |
| 20260831150035 | 27 | 164 | 12.9 | 0.0 | 0.00 | 0.00 | 0.00 | 68 | 1012.4 |
| 20260831144504 | 27 | 164 | 11.3 | 0.0 | 0.00 | 0.00 | 0.00 | 70 | 1012.5 |
| 20260831143003 | 26 | 162 | 9.7 | 0.0 | 0.00 | 0.00 | 0.00 | 73 | 1012.5 |
| 20260831141503 | 25 | 197 | 9.7 | 0.0 | 0.00 | 0.00 | 0.00 | 76 | 1012.3 |
| 20260831140138 | 25 | 191 | 9.7 | 0.0 | 0.00 | 0.00 | 0.00 | 81 | 1012.3 |
| 20260831134504 | 24 | 182 | 8.0 | 0.0 | 0.00 | 0.00 | 0.00 | 84 | 1012.4 |
| 20260831133118 | 23 | 159 | 6.4 | 0.0 | 0.00 | 0.00 | 0.00 | 87 | 1012.5 |
| 20260831131604 | 23 | 177 | 8.0 | 0.0 | 0.00 | 0.00 | 0.00 | 89 | 1012.3 |
| 20260831130003 | 23 | 175 | 6.4 | 0.0 | 0.00 | 0.00 | 0.00 | 90 | 1012.1 |
| 20260831123036 | 22 | 165 | 6.4 | 0.0 | 0.00 | 0.00 | 0.00 | 90 | 1012.0 |
| 20260831121602 | 22 | 155 | 9.7 | 0.0 | 0.00 | 0.00 | 0.00 | 90 | 1011.9 |
| 20260831120009 | 22 | 205 | 6.4 | 0.0 | 0.00 | 0.00 | 0.00 | 90 | 1011.4 |
| 20260831114516 | 22 | 180 | 4.8 | 0.0 | 0.00 | 0.00 | 0.00 | 90 | 1011.4 |
| 20260831113104 | 22 | 180 | 4.8 | 0.0 | 0.00 | 0.00 | 0.00 | 89 | 1011.4 |
| 20260831111504 | 23 | 179 | 6.4 | 0.0 | 0.00 | 0.00 | 0.00 | 89 | 1011.4 |
| 20260831101601 | 23 | 192 | 11.3 | 0.0 | 0.00 | 0.00 | 0.00 | 87 | 1011.5 |
| 20260831100105 | 23 | 189 | 11.3 | 0.0 | 0.00 | 0.00 | 0.00 | 86 | 1011.4 |
| 20260831091605 | 23 | 184 | 11.3 | 0.0 | 0.00 | 0.00 | 0.00 | 87 | 1011.3 |
| 20260831084509 | 23 | 171 | 11.3 | 0.0 | 0.00 | 0.00 | 0.00 | 87 | 1011.2 |
| 20260831083003 | 23 | 189 | 11.3 | 0.0 | 0.00 | 0.00 | 0.00 | 87 | 1011.4 |
| 20260831081605 | 23 | 171 | 8.0 | 0.0 | 0.00 | 0.00 | 0.00 | 86 | 1011.5 |
| 20260831080104 | 23 | 175 | 8.0 | 0.0 | 0.00 | 0.00 | 0.00 | 85 | 1011.5 |
| 20260831074504 | 23 | 179 | 9.7 | 0.0 | 0.00 | 0.00 | 0.00 | 84 | 1011.5 |
| 20260831071512 | 23 | 173 | 9.7 | 0.0 | 0.00 | 0.00 | 0.00 | 82 | 1011.5 |
| 20260831064603 | 24 | 171 | 9.7 | 0.0 | 0.00 | 0.00 | 0.00 | 79 | 1011.5 |
| 20260831063103 | 24 | 161 | 6.4 | 0.0 | 0.00 | 0.00 | 0.00 | 78 | 1011.6 |
| 20260831061505 | 25 | 174 | 9.7 | 0.0 | 0.00 | 0.00 | 0.00 | 77 | 1011.6 |
| 20260831060104 | 25 | 155 | 9.7 | 0.0 | 0.00 | 0.00 | 0.00 | 75 | 1011.3 |
| 20260831054603 | 25 | 115 | 9.7 | 0.0 | 0.00 | 0.00 | 0.00 | 71 | 1011.4 |
| 20260831053110 | 25 | 101 | 9.7 | 0.0 | 0.00 | 0.00 | 0.00 | 68 | 1011.1 |
| 20260831050006 | 26 | 134 | 9.7 | 0.0 | 0.00 | 0.00 | 0.00 | 67 | 1011.1 |
| 20260831043001 | 26 | 143 | 6.4 | 0.0 | 0.00 | 0.00 | 0.00 | 65 | 1010.9 |
| 20260831041508 | 27 | 164 | 8.0 | 0.0 | 0.00 | 0.00 | 0.00 | 65 | 1010.7 |
| 20260831040002 | 27 | 159 | 9.7 | 0.0 | 0.00 | 0.00 | 0.00 | 65 | 1010.8 |
| 20260831034605 | 27 | 140 | 9.7 | 0.0 | 0.00 | 0.00 | 0.00 | 65 | 1010.7 |
| 20260831033134 | 27 | 155 | 8.0 | 0.0 | 0.00 | 0.00 | 0.00 | 65 | 1010.7 |
| 20260831030002 | 28 | 141 | 4.8 | 0.0 | 0.00 | 0.00 | 0.00 | 63 | 1010.6 |
| 20260831024627 | 27 | 153 | 3.2 | 0.0 | 0.00 | 0.00 | 0.00 | 61 | 1010.5 |
| 20260831023001 | 28 | 134 | 1.6 | 0.0 | 0.00 | 0.00 | 0.00 | 57 | 1010.2 |
| 20260831021502 | 27 | 117 | 1.6 | 0.0 | 0.00 | 0.00 | 0.00 | 56 | 1009.9 |
| 20260831020007 | 27 | 88 | 0.0 | 0.0 | 0.00 | 0.00 | 0.00 | 57 | 1009.9 |
| 20260831011503 | 28 | 136 | 0.0 | 0.0 | 0.00 | 0.00 | 0.00 | 53 | 1009.5 |
| 20260831010006 | 30 | 136 | 0.0 | 0.0 | 0.00 | 0.00 | 0.00 | 51 | 1009.5 |
| 20260831004604 | 30 | 126 | 3.2 | 0.0 | 0.00 | 0.00 | 0.00 | 49 | 1009.3 |
| 20260831003005 | 31 | 131 | 3.2 | 0.0 | 0.00 | 0.00 | 0.00 | 47 | 1009.2 |
| 20260831001604 | 31 | 96 | 3.2 | 0.0 | 0.00 | 0.00 | 0.00 | 45 | 1009.2 |
| 20260831000002 | 32 | 128 | 6.4 | 0.0 | 0.00 | 0.00 | 0.00 | 44 | 1009.1 |
| 20260830234502 | 32 | 111 | 4.8 | 0.0 | 0.00 | 0.00 | 0.00 | 44 | 1009.0 |
| 20260830231506 | 32 | 193 | 8.0 | 0.0 | 0.00 | 0.00 | 0.00 | 45 | 1009.0 |
| 20260830230008 | 33 | 138 | 8.0 | 0.0 | 0.00 | 0.00 | 0.00 | 45 | 1009.0 |
| 20260830224607 | 33 | 171 | 4.8 | 0.0 | 0.00 | 0.00 | 0.00 | 45 | 1009.1 |
| 20260830223002 | 32 | 157 | 4.8 | 0.0 | 0.00 | 0.00 | 0.00 | 44 | 1009.3 |